CW0213 Weather Reports


time (UTC)temp
F
wind
direction
speed
knots
gust
knots
rain 1hr
in
rain 24hr
in
rain mn
in
humidity
%
barometer
mb
20260504190002 70 260 3.5 9.6 0.00 0.00 0.00 63 1006.8
20260504184603 70 252 6.1 10.4 0.00 0.00 0.00 64 1006.8
20260504183031 71 263 4.3 7.8 0.00 0.00 0.00 65 1006.6
20260504181530 71 257 1.7 7.8 0.00 0.00 0.00 67 1006.8
20260504180028 70 235 4.3 7.0 0.00 0.00 0.00 68 1006.9
20260504174526 72 205 2.6 5.2 0.00 0.00 0.00 63 1006.7
20260504173022 73 15 0.9 2.6 0.00 0.00 0.00 53 1006.7
20260504171519 71 21 0.9 3.5 0.00 0.00 0.00 56 1006.8
20260504081505 58 20 0.0 0.9 0.00 0.00 0.00 75 1005.5
20260504044546 64 254 0.0 0.0 0.00 0.00 0.00 66 1005.7
20260504043054 65 254 0.0 0.0 0.00 0.00 0.00 65 1005.7
20260504041546 66 254 0.0 0.0 0.00 0.00 0.00 66 1005.7
20260504040046 66 254 0.0 1.7 0.00 0.00 0.00 66 1005.8
20260504034552 67 254 0.9 2.6 0.00 0.00 0.00 65 1005.7
20260504033044 67 254 0.0 0.0 0.00 0.00 0.00 65 1005.7
20260504031544 68 254 0.0 0.0 0.00 0.00 0.00 64 1005.5
20260504030042 69 254 0.0 1.7 0.00 0.00 0.00 64 1005.6
20260504024548 70 254 0.9 3.5 0.00 0.00 0.00 63 1005.7
20260504023041 71 259 0.9 2.6 0.00 0.00 0.00 57 1005.7
20260504021540 73 259 0.0 2.6 0.00 0.00 0.00 56 1005.9
20260504020041 73 329 0.9 3.5 0.00 0.00 0.00 52 1006.0
20260504014538 74 265 0.9 4.3 0.00 0.00 0.00 51 1006.2
20260504013044 74 261 1.7 6.1 0.00 0.00 0.00 51 1006.2
20260504011532 76 258 1.7 6.1 0.00 0.00 0.00 49 1006.3
20260504010030 78 263 0.0 3.5 0.00 0.00 0.00 45 1006.6
20260504004530 78 5 0.9 4.3 0.00 0.00 0.00 44 1006.7
20260504003028 78 259 0.9 3.5 0.00 0.00 0.00 45 1006.9
20260504001534 78 271 1.7 7.0 0.00 0.00 0.00 44 1006.9
20260504000023 79 254 0.0 3.5 0.00 0.00 0.00 43 1007.2
20260503234522 79 267 0.9 4.3 0.00 0.00 0.00 40 1007.3
20260503233021 78 55 0.9 5.2 0.00 0.00 0.00 43 1007.5
20260503231516 77 259 0.9 6.1 0.00 0.00 0.00 45 1007.6
20260503230032 77 333 0.9 7.0 0.00 0.00 0.00 47 1007.9
20260503224513 77 242 1.7 6.1 0.00 0.00 0.00 46 1008.2
20260503223010 78 209 1.7 7.0 0.00 0.00 0.00 48 1008.3
20260503221508 78 246 1.7 7.0 0.00 0.00 0.00 48 1008.6
20260503220004 76 28 0.9 7.0 0.00 0.00 0.00 53 1008.7
20260503214503 75 257 2.6 7.0 0.00 0.00 0.00 52 1008.8
20260503213103 76 263 1.7 6.1 0.00 0.00 0.00 50 1008.9
20260503211553 75 240 2.6 7.8 0.00 0.00 0.00 54 1009.0
20260503210031 76 23 1.7 7.0 0.00 0.00 0.00 54 1009.2
20260503204530 75 254 1.7 6.1 0.00 0.00 0.00 53 1009.4
20260503203034 74 263 1.7 6.1 0.00 0.00 0.00 55 1009.7
20260503201524 73 246 2.6 8.7 0.00 0.00 0.00 52 1009.8
20260503200026 74 249 0.9 6.1 0.00 0.00 0.00 50 1009.9
20260503194520 74 254 0.9 6.1 0.00 0.00 0.00 55 1010.2
20260503193033 73 253 1.7 7.0 0.00 0.00 0.00 57 1010.2